Location: Newark
(34.3481°N, 134.0494°E)
Time: 14:59:45
(UTC+00:00)

Vanguard 3 - Pass Details

Date: 04 February 2020
Orbit: 508 x 3263 km, 33.3° (Epoch: 22 February)

Event Time Altitude Azimuth Distance (km) Brightness Sun altitude
Rises 01:47:44 0° 174° (S) 4,620 11.9 34.9°
Reaches altitude 10° 01:53:22 10° 147° (SSE) 4,271 12.2 35.4°
Maximum altitude 01:57:45 13° 125° (SE) 4,500 11.9 35.8°
Drops below altitude 10° 02:02:53 10° 104° (ESE) 5,177 11.8 36.2°
Sets 02:11:39 0° 81° (E) 6,797 12.0 36.9°
